Etusivu
METAR-TAF:

METAR-TAF

Lentoasemat :

Torsbyn, Ruotsi

Leveyspiiri: 60-09-17N, Pituuspiiri: 12-59-40E, korkeus merenpinnasta: 120 m

Tämänhetkinen sää

Tämä raportti tehtiin 47 minuuttia sitten, kello 00.50 UTC
tyyntä
Lämpötila -3°C
Kosteus 93%
Ilmanpaine 1023 hPa
Näkyvyys 10 km tai enemmän

METAR: ESST 180050Z AUTO 00000KT 9999 OVC013/// M03/M04 Q1023 RESN

Aika: 02:37 (01:37 UTC)


TAF: puuttuu

Säähavainnot ja -ennusteet yli 4000 lentoasemalta (METAR- ja TAF-raportit).

Käytössä olevat sääasemat on merkitty karttaan keltaisilla ja punaisilla pisteillä.

Aseta hiiri pisteen päälle nähdäksesi sääaseman nimen.

Klikkaa sitten nähdäksesi säähavainnot ja -ennusteet.

Kartan vaihtaminen: klikkaa mustalla rastilla varustettuja vihreitä pisteitä, niin voit zoomata sisään; viivalla varustettua vihreää pistettä, niin voit zoomata ulos tai vihreitä nuolia, niin pääset viereisille kartoille.


METAR-TAF: